Regional Weather Roundup
Issued by NWS

Home | Current Version | Previous Version | Text Only | Print | Product List | Glossary On
Versions: 1 2 3 4 5 6 7 8 9 10 11 12 13 14 15 16 17 18 19 20 21 22 23 24 25 26 27 28 29 30 31 32 33 34 35 36 37 38 39 40 41 42 43 44 45 46 47 48 49 50
000
ASUS42 KTBW 040220
RWRFL
FLORIDA REGIONAL WEATHER ROUNDUP
NATIONAL WEATHER SERVICE TAMPA BAY RUSKIN FL
1000 PM EDT THU SEP 03 2015

NOTE: "FAIR" INDICATES FEW OR NO CLOUDS BELOW 12,000 FEET WITH NO
SIGNIFICANT WEATHER AND/OR OBSTRUCTIONS TO VISIBILITY.


FLZ001>010-012>015-112-114-115-040300-
PANHANDLE FLORIDA

CITY           SKY/WX    TMP DP  RH WIND       PRES   REMARKS
PENSACOLA      CLEAR     81  72  74 W7        29.94R
MILTON NAS     MOCLDY    74  72  93 CALM      29.94
CRESTVIEW      PTCLDY    73  72  96 CALM      29.96R FOG
DUKE FIELD     MOCLDY    74  71  93 CALM      29.94R
VALPARAISO     MOCLDY    79  73  81 NE3       29.94R
MARY ESTHER    PTCLDY    82  74  76 W5        29.93R
PANAMA CITY    FAIR      77  71  82 NE5       29.93R
TYNDALL AFB    MOCLDY    79  75  86 NW3       29.94R
APALACHICOLA   MOCLDY    77  75  93 NW3       29.94R

STATION/POSITION SKY/WX   TEMP    WIND        PRES    WAVE   SWELL
                          AIR SEA DIR/SP/G            HT/PER HT/PER
                          (F)     (DEG/KT/KT) (MB)    (FT/S) (FT/S)
30.1N   87.6W              83 86  250/  8/  8 1013.1R   1/ 4   2/ 5
29.2N   88.2W              80 84  220/  2/  4 1014.0R   2/ 5   2/ 5
28.8N   86.0W              82 86  290/  2/  4 1014.2    1/ 5   2/ 5
PANAMA CITY BEAC           81 85  340/  3/  6 1013.2F
CAPE SAN BLAS    NOT AVBL
TOWER C                    83     310/  6/  7 1013.7R
28.5N   84.5W              84 86  280/  4/  6 1014.0R   1/ 6   2/ 6

$$
FLZ011-016>038-118-127-128-134-139-239-040300-
NORTH FLORIDA

CITY           SKY/WX    TMP DP  RH WIND       PRES   REMARKS
MARIANNA       PTCLDY    74  72  93 CALM      29.92S
TALLAHASSEE    CLOUDY    76  72  87 SW5       29.93R
PERRY          MOCLDY    78  75  89 CALM      29.94R
CROSS CITY       N/A     82  78  88 CALM      29.92R
LAKE CITY      FAIR      81  75  83 CALM      29.94R
GAINESVILLE    CLOUDY    79  73  82 CALM      29.94R
MAYPORT NAS    MOCLDY    81  77  88 CALM      29.92R
JACKSONVILLE   MOCLDY    80  77  90 CALM      29.92R
JAX NAS        MOCLDY    87  77  72 SE6       29.92S HX  99
JAX CRAIG      MOCLDY    81  77  88 CALM      29.92R
JAX CECIL      PTCLDY    77  75  94 CALM      29.93R
FERNANDINA BEA FAIR      82  77  83 CALM      29.91R
ST AUGUSTINE   MOCLDY    82  77  84 CALM      29.94R

STATION/POSITION SKY/WX   TEMP    WIND        PRES    WAVE   SWELL
                          AIR SEA DIR/SP/G            HT/PER HT/PER
                          (F)     (DEG/KT/KT) (MB)    (FT/S) (FT/S)
SHELL POINT                76     330/  5/  7   N/A
KEATON BEACH               80      CALM  /  1 1013.9R
CEDAR KEY                  85     290/  6/  8 1014.1R
FERNANDINA                 82 87   CALM  /  1 1012.3R
30.7N   81.3W                 85                N/A     1/13
MAYPORT                    83 86   10/  3/  3 1013.2R
31.4N   80.9W              81 84   70/  4/  6 1013.2R   2/ 8   2/ 8
ST AUGUSTINE               83 85  100/  3/  3 1014.4R

$$
FLZ040-043>046-052-053-057-058-063-144-040300-
INTERIOR CENTRAL FLORIDA

CITY           SKY/WX    TMP DP  RH WIND       PRES   REMARKS
OCALA          PTCLDY    75  70  83 S3        29.94S
THE VILLAGES     N/A     79  75  89 CALM      29.85R
LEESBURG       PTCLDY    78  74  87 CALM      29.95R
SANFORD        PTCLDY    82  71  69 N3        29.94R
ORLANDO EXEC   PTCLDY    84  73  69 NW7       29.94R
ORLANDO INTL   MOCLDY    84  69  60 W5        29.95R
WINTER HAVEN   PTCLDY    81  75  82 CALM      29.96R
LAKELAND       CLEAR     81  75  83 W3        29.96R
BARTOW         FAIR      81  73  78 CALM      29.96S
OKEECHOBEE     PTCLDY    79  72  78 SW9       29.95S

$$
FLZ041-047-054-059-064-141-147-040300-
EAST CENTRAL FLORIDA

CITY           SKY/WX    TMP DP  RH WIND       PRES   REMARKS
DAYTONA BEACH  MOCLDY    81  78  91 SW3       29.94R
NEW SMYRNA BEA PTCLDY    82  77  83 CALM      29.94R
CAPE CANAVERAL PTCLDY    80  74  83 S5        29.92S
PATRICK AFB    CLEAR     84  79  84 S8        29.93S HX  97
MELBOURNE      PTCLDY    84  78  82 SE6       29.94R HX  95
VERO BEACH     PTCLDY    83  75  77 S7        29.94S
FT PIERCE      PTCLDY    81  76  84 S6        29.94R
STUART         PTCLDY    81  72  74 W7        29.96R

STATION/POSITION SKY/WX   TEMP    WIND        PRES    WAVE   SWELL
                          AIR SEA DIR/SP/G            HT/PER HT/PER
                          (F)     (DEG/KT/KT) (MB)    (FT/S) (FT/S)
28.5N   80.2W              85 88  170/  8/  8 1013.9R
28.9N   78.5W              84 86  240/  8/ 12 1013.3R
TRIDENT PIER               83 87  170/  5/  7 1014.1R
28.4N   80.5W                 86                N/A     1/13
27.5N   80.2W                 86                N/A     1/13

$$
FLZ050-056-061-142-242-148-248-149-249-151-251-155-255-
160-260-040300-
WEST CENTRAL FLORIDA

CITY           SKY/WX    TMP DP  RH WIND       PRES   REMARKS
CRYSTAL RIVER  FAIR      79  77  94 CALM      29.95R
INVERNESS      FAIR      77  77 100 CALM      29.95R
BROOKSVILLE    MOCLDY    79  76  90 S3        29.96R
CLEARWATER     MOCLDY    83  75  77 CALM      29.95R
TAMPA INTL     MOCLDY    84  75  74 NW3       29.95R
TAMPA EXEC     MOCLDY    81  77  89 CALM      29.96R
PLANT CITY     MOCLDY    82  79  89 CALM      29.97R
MACDILL AFB    MOCLDY    82  78  86 N3        29.94S
PETER O KNIGHT MOCLDY    86  77  74 NW3       29.95R HX  97
ST PETERSBURG  MOCLDY    86  75  69 N5        29.93R HX  95
SARASOTA       MOCLDY    82  75  79 CALM      29.94R
VENICE         FAIR      84  75  74 NW7       29.96R

STATION/POSITION SKY/WX   TEMP    WIND        PRES    WAVE   SWELL
                          AIR SEA DIR/SP/G            HT/PER HT/PER
                          (F)     (DEG/KT/KT) (MB)    (FT/S) (FT/S)
CEDAR KEY                  85     290/  6/  8 1014.1R
28.5N   84.5W              84 86  280/  4/  6 1014.0R   1/ 6   2/ 6
27.3N   84.2W                 88                N/A     1/ 6
CLEARWATER BEACH           85 88  310/  6/  8 1013.9R
MIDDLE TAMPA BAY                  320/  7/  9 1014.0R
VENICE                     85 87  330/  9/ 10 1013.7R

$$
FLZ066-069-070-075>078-162-262-165-265-040300-
SOUTHWEST FLORIDA AND KEYS

CITY           SKY/WX    TMP DP  RH WIND       PRES   REMARKS
PUNTA GORDA    PTCLDY    82  77  84 NW6       29.96S
FT MYERS       PTCLDY    80  71  74 SE3       29.95S
SOUTHWEST INTL PTCLDY    80  71  74 SW3       29.95S
NAPLES         PTCLDY    79  70  74 CALM      29.95F
MARCO ISLAND   MOCLDY    77  70  78 W3        29.95F
MARATHON       CLOUDY    86  73  65 CALM      29.96S
KEY WEST NAS   CLOUDY    86  75  69 NE5       29.96R HX  95
KEY WEST INTL  CLEAR     86  76  71 CALM      29.97R HX  96

STATION/POSITION SKY/WX   TEMP    WIND        PRES    WAVE   SWELL
                          AIR SEA DIR/SP/G            HT/PER HT/PER
                          (F)     (DEG/KT/KT) (MB)    (FT/S) (FT/S)
VENICE                     85 87  330/  9/ 10 1013.7R
NAPLES                        87              1015.6R
26.0N   85.6W              86 87  100/  2/  2 1014.5R   1/ 6   2/ 6
DRY TORTUGAS                                    N/A
NW FL BAY                  87     320/  3/  4 1014.4
SAND KEY                   86      90/  4     1014.7R
LONG KEY                   87 90   50/  1/  2 1015.4S
MOLASSES REEF              85 87     CALM     1014.8R

$$
FLZ067-068-071>074-168-172>174-040300-
SOUTHEAST FLORIDA

CITY           SKY/WX    TMP DP  RH WIND       PRES   REMARKS
W PALM BEACH   PTCLDY    78  71  79 SW6       29.96R
FT LAUDER-EXEC CLOUDY    81  70  69 SW7       29.96R
FT LAUDERDALE  CLOUDY    81  71  71 SW3       29.96R
POMPANO BEACH  CLOUDY    84  70  62 S8        29.95R
PEMBROKE PINES CLOUDY    81  69  67 NW3       29.97S
OPA LOCKA      CLOUDY    81  70  69 CALM      29.97R
MIAMI          CLOUDY    80  74  81 CALM      29.96S
WEST KENDALL   CLOUDY    77  74  90 CALM      29.97R
HOMESTEAD      CLOUDY    81  75  83 SE1       29.96R

STATION/POSITION SKY/WX   TEMP    WIND        PRES    WAVE   SWELL
                          AIR SEA DIR/SP/G            HT/PER HT/PER
                          (F)     (DEG/KT/KT) (MB)    (FT/S) (FT/S)
PORT EVERGLADES            83     230/  3/  5 1014.5R
VIRGINIA KEY               83 88  300/  4/  8 1014.2R
LAKE WORTH                 85 88  190/  9/ 12 1013.4R
FOWEY ROCKS                83 87  300/  3/  4 1014.8R
SETTLEMENT POINT           84     160/  4/  4 1015.0R

$$



USA.gov is the U.S. government's official web portal to all federal, state and local government web resources and services.